Location: Crescent
(42.8242°N, 73.7329°W)
Time: 21:55:02
(UTC+00:00)

Vanguard 2 Rocket - Pass Details

Date: 18 February 2026
Orbit: 553 x 3286 km, 32.9° (Epoch: 9 March)

Event Time Altitude Azimuth Distance (km) Brightness Sun altitude
Rises 19:54:32 0° 262° (W) 7,013 12.2 23.9°
Reaches altitude 10° 19:59:48 10° 258° (WSW) 5,731 12.1 23.2°
Maximum altitude 20:15:13 53° 189° (S) 2,406 9.9 21.1°
Drops below altitude 10° 20:24:19 10° 116° (ESE) 3,500 9.7 19.8°
Sets 20:26:44 0° 111° (ESE) 4,189 10.0 19.4°
